Regional Weather Roundup
Issued by NWS Northern Indiana

Home | Current Version | Previous Version | Graphics & Text | Print | Product List | Glossary On
Versions: 1 2 3 4 5 6 7 8 9 10 11 12 13 14 15 16 17 18 19 20 21 22 23 24 25 26 27 28 29 30 31 32 33 34 35 36 37 38 39 40 41 42 43 44 45 46 47 48 49 50
635
ASUS43 KIWX 282200
RWRIWX

KIWX WEATHER ROUNDUP
NATIONAL WEATHER SERVICE NORTHERN INDIANA
600 PM EDT THU APR 28 2016

NOTE: "FAIR" INDICATES FEW OR NO CLOUDS BELOW 12,000 FEET WITH NO
SIGNIFICANT WEATHER AND/OR OBSTRUCTIONS TO VISIBILITY.

* THESE STATIONS ARE NOT UNDER NWS QUALITY CONTROL. THEY ALSO MAY NOT
  REPORT WEATHER SUCH AS PRECIPITATION OR FOG.

INZ001>027-282300-
NORTHERN INDIANA

CITY           SKY/WX    TMP DP  RH WIND       PRES   REMARKS
GARY*          CLOUDY    50  48  93 N7        29.93R
SOUTH BEND     CLOUDY    52  45  77 E8        29.92R
ELKHART*       CLOUDY    54  48  82 E8        29.92R
GOSHEN         CLOUDY    53  46  77 E9        29.91R
ANGOLA*        CLOUDY    48  37  66 E12       29.92S
FORT WAYNE     CLOUDY    52  47  83 NE14      29.91R
PERU/GRISSOM   CLOUDY    56  51  85 E6        29.89R

$$
INZ028>050-282300-
CENTRAL INDIANA

CITY           SKY/WX    TMP DP  RH WIND       PRES   REMARKS
LAFAYETTE      PTSUNNY   63  54  72 N7        29.88R
KOKOMO*        CLOUDY    55  48  76 E7        29.90R
MUNCIE*        CLOUDY    56  51  84 NE12      29.88R HAZE
INDIANAPOLIS   PTSUNNY   69  55  60 NW13      29.85R

$$
MIZ043>046-050>051-056>058-064>065-071>073-077>080-282300-
SOUTHWEST LOWER MICHIGAN

CITY           SKY/WX    TMP DP  RH WIND       PRES   REMARKS
BATTLE CREEK   CLOUDY    45  38  76 E12       29.95R
BENTON HARBOR  CLOUDY    53  44  71 E7        29.92R
COLDWATER*     CLOUDY    49  39  67 E8        29.94R
HILLSDALE*     CLOUDY    47  39  73 E14       29.93R
HOLLAND        CLOUDY    44  39  82 E12       29.96S
GRAND RAPIDS   CLOUDY    43  38  82 E15       29.98R
KALAMAZOO      CLOUDY    49  39  68 E8G16     29.95R
STURGIS*       CLOUDY    50  42  73 E9        29.91F
THREE RIVERS*  CLOUDY    51  42  70 E10       29.92F

$$
OHZ001>008-015>018-024>025-282300-
NORTHWEST OHIO

CITY           SKY/WX    TMP DP  RH WIND       PRES   REMARKS
DEFIANCE       CLOUDY    52  40  63 E12       29.93R
FINDLAY        CLOUDY    52  42  69 NE13      29.90S
TOLEDO EXPRESS CLOUDY    48  36  63 E15       29.94S
TOLEDO METCALF CLOUDY    48  37  65 NE13      29.95S
LIMA           CLOUDY    50  48  93 NE8       29.90R

$$
AND FOR LAKE MICHIGAN COASTAL AND OPEN LAKE BUOY OBSERVATIONS

STATION/POSITION TEMP    WIND        PRES    VSBY  WAVE
                 AIR SEA DIR/SP/G                  HT/PER
                 (F)     (DEG/KT/KT) (MB)    (MI)  (FT/S)
CALUMET HARBOR    46     360/  7/ 10 1012.6R
MICHIGAN CITY     48     350/  9/ 10   N/A
BURNS HARBOR      47      10/  7/ 13 1013.2R
SAINT JOSEPH      54      50/  2/  7 1013.5S
SOUTH LAKE BUOY   40 40   60/ 16/ 17 1013.9          3/ 4
4 MI NW BRIDGMAN  51 48  120/  8/ 10   N/A           2/ 5

$$
&&




USA.gov is the U.S. government's official web portal to all federal, state and local government web resources and services.